Dewpoint
5 4 3 7 9 9 8 9 9 9 12 12 11 12 13 13 13 12 11 11 11 11 11 10 10 9 8 7 8 7 6 6 6 7 6 6 7 7 7 7 8 8 8
5 4 4 2 9 8 7 7 8 9 10 12 12 12 11 12 13 12 10 11 11 11 10 10 9 9 9 9 9 9 9 9 8 8 8 8 8 7 8 8 8 7 8
4 3 3 3 5 7 9 8 8 7 7 8 8 10 10 10 11 11 11 11 11 11 10 10 9 9 9 10 10 10 10 10 10 10 9 9 9 8 8 8 8 8 8
2 3 4 3 4 4 4 5 5 5 6 5 8 8 8 9 8 9 11 10 10 11 11 11 10 10 10 10 10 11 10 11 11 11 11 10 10 9 9 9 8 8 8
0 -0 -0 -0 -0 4 6 6 4 4 4 6 8 8 8 8 8 10 10 10 8 8 9 9 10 10 9 8 8 9 9 10 11 11 11 11 11 10 10 9 9 8 7
0 0 -1 -1 -1 -2 -1 -1 1 6 6 7 8 9 9 8 8 9 9 9 10 10 11 9 9 9 10 9 10 10 10 10 11 11 11 11 11 11 11 10 10 9 9
-1 -2 -2 -2 -1 -1 -2 -1 -1 -0 5 7 7 8 8 9 10 10 10 10 10 10 10 10 10 10 10 11 11 10 9 9 9 10 11 10 10 10 10 10 9 9 9
-2 -2 -2 -2 -2 -2 -2 -2 -2 -2 3 7 6 6 7 7 8 8 8 9 9 8 7 9 10 10 10 10 9 8 8 10 10 9 10 8 8 8 8 8 9 9 8
-2 -3 -2 -2 -1 -1 -2 -2 -2 -2 0 6 8 8 8 6 7 8 7 4 3 2 2 2 3 3 3 3 2 2 6 11 10 9 9 8 8 8 7 7 7 7 8
-2 -1 -1 -1 -1 -1 -1 -1 0 3 5 8 9 9 8 7 5 3 2 2 1 -0 -1 -1 -1 -1 0 1 1 4 10 11 11 10 10 8 7 7 6 5 6 6 7
-1 -3 -3 -1 -0 -0 0 1 2 2 3 3 2 2 1 1 1 0 -1 -1 -2 -3 -3 -3 -3 -2 -2 -2 -1 5 9 10 10 10 9 8 7 6 6 5 5 5 5
1 0 0 1 1 1 1 1 0 0 -0 -1 -1 -1 -1 -2 -2 -2 -3 -3 -2 -2 -1 -1 -1 -1 -1 -0 5 6 8 9 10 7 8 8 7 6 6 4 4 4 4
2 2 2 1 1 0 0 -0 -0 -1 -1 -1 -1 -1 -1 -0 -0 -0 -0 -0 -0 0 1 1 2 2 3 4 6 7 8 8 7 7 8 7 6 5 4 4 4 3 2
2 2 2 1 1 1 1 0 0 1 1 1 1 1 1 1 1 1 1 1 1 1 1 2 2 3 4 4 4 5 6 6 6 6 6 5 4 4 3 3 3 2 2
3 2 2 2 2 1 1 1 1 1 1 1 1 1 1 1 1 1 1 1 2 2 2 2 3 3 3 3 4 4 4 4 4 4 4 4 3 3 3 2 2 2 2
3 3 3 3 2 2 1 1 1 1 1 1 1 1 1 1 1 1 1 2 2 3 3 3 3 3 3 3 3 3 3 3 3 3 3 3 3 2 2 2 1 1 0
3 3 3 3 2 2 2 1 1 1 1 1 1 1 1 1 1 1 2 2 2 2 2 2 2 3 2 3 3 3 2 2 2 2 2 2 1 1 1 -0 -1 -6 -16
3 3 3 3 3 3 2 2 1 1 1 1 1 1 1 1 1 1 1 1 1 2 2 2 2 2 2 2 2 2 2 2 2 1 1 0 -0 -3 -12 -23 -26 -27 -29
2 2 0 1 3 3 2 2 1 1 1 1 1 1 1 1 2 2 1 1 1 2 2 2 1 1 1 2 2 1 0 -0 -0 -0 -3 -13 -23 -26 -28 -31 -31 -31 -30
0 1 1 1 0 -1 2 2 1 1 1 1 1 1 1 1 2 2 2 2 2 2 1 1 1 1 1 0 -0 -0 -1 -2 -9 -22 -25 -27 -30 -31 -31 -30 -29 -29 -28
2 2 2 2 2 1 1 2 2 1 1 1 1 1 1 1 2 2 2 2 2 1 1 1 1 0 -0 -1 -2 -7 -17 -24 -26 -27 -29 -30 -30 -30 -29 -28 -28 -28 -27
2 1 2 2 1 1 1 2 1 1 1 1 1 1 1 1 2 2 2 1 1 1 1 0 0 -1 -3 -8 -16 -23 -24 -26 -30 -31 -31 -29 -29 -28 -27 -28 -28 -28 -29
3 3 0 1 2 1 1 1 1 1 1 1 0 1 1 1 1 2 1 1 1 1 0 0 -0 -3 -9 -20 -24 -25 -27 -31 -31 -31 -29 -28 -27 -27 -27 -27 -28 -28 -27
3 3 2 -0 -0 -0 1 2 1 0 0 0 -0 0 1 1 1 1 1 0 1 0 0 -0 -1 -5 -15 -24 -25 -26 -29 -31 -31 -30 -28 -27 -26 -26 -27 -27 -27 -27 -27
1 4 3 3 3 3 2 2 1 -0 -0 -0 -0 -0 1 1 1 0 0 0 0 -0 -0 -1 -3 -8 -21 -24 -24 -24 -26 -28 -30 -29 -28 -26 -25 -26 -27 -27 -27 -27 -26
1 2 2 1 1 1 1 0 -0 -1 -1 -1 -1 -0 0 0 -0 -0 0 -0 -1 -1 -1 -3 -6 -16 -20 -21 -23 -24 -25 -29 -32 -30 -28 -26 -25 -25 -26 -28 -29 -29 -28
Wind_Speed
35 20 18 10 16 21 21 25 22 20 20 21 24 25 27 25 22 20 15 18 16 16 16 15 15 15 16 13 12 12 12 11 11 13 15 15 16 17 16 15 15 15 14
43 37 22 14 18 21 24 18 18 18 19 20 23 25 23 22 20 15 18 20 18 16 17 16 16 17 16 16 16 15 14 14 14 15 16 15 17 17 13 10 8 5 12
31 26 21 18 14 18 17 18 16 17 18 19 22 24 23 23 22 24 21 19 18 17 17 17 17 18 18 19 18 17 16 16 16 16 15 8 8 12 17 17 15 19 16
34 33 28 29 21 19 19 20 17 19 26 29 28 26 25 22 21 25 22 20 21 20 20 19 19 18 20 22 22 21 22 21 20 21 21 21 24 20 16 19 21 23 23
22 28 30 23 24 30 30 31 33 29 24 24 27 26 30 26 25 25 23 23 20 23 21 21 21 22 24 24 25 24 26 24 24 25 24 25 26 26 28 26 23 24 26
24 24 20 20 19 21 25 24 26 30 26 24 25 26 27 27 26 25 21 20 18 20 22 24 22 24 24 23 24 24 23 24 25 27 25 27 28 26 26 26 29 25 29
31 29 28 25 24 19 21 25 23 24 26 24 23 21 20 22 22 21 20 20 20 20 20 22 24 24 24 24 22 22 23 23 24 23 23 24 26 26 25 25 25 29 23
33 32 31 26 24 22 20 22 23 24 25 26 25 22 21 22 21 22 21 20 20 21 21 22 23 23 24 24 25 26 26 25 24 23 22 20 20 21 23 25 24 25 21
23 27 27 25 23 22 20 19 19 22 26 27 26 25 24 23 23 22 21 20 21 22 24 25 25 26 26 27 27 27 27 27 25 23 21 20 18 18 19 20 20 21 15
11 16 22 22 23 22 22 21 19 17 19 20 20 20 19 19 20 21 22 24 26 27 27 28 30 30 30 29 28 26 26 27 25 25 22 21 18 22 21 18 19 19 18
10 14 19 22 23 23 22 21 20 20 19 19 18 18 19 20 22 23 25 28 28 27 26 25 24 25 23 23 24 23 23 28 23 25 23 22 20 21 19 18 20 18 17
9 12 17 21 21 20 19 18 18 17 17 17 18 18 19 20 20 22 23 23 23 22 21 20 20 20 19 17 16 16 19 24 23 24 23 23 24 24 21 18 18 15 14
15 16 18 18 18 17 15 14 13 13 12 12 13 13 13 13 14 16 17 18 19 20 20 19 19 19 18 17 17 18 22 21 25 24 23 20 22 20 15 16 15 14 12
13 14 15 15 15 14 13 11 11 10 10 9 9 9 9 9 10 12 14 15 17 17 18 18 18 19 18 17 18 18 20 20 20 20 19 18 16 14 15 13 13 12 13
13 13 13 12 12 13 13 12 11 11 10 10 9 8 7 7 8 10 12 14 14 14 14 13 12 13 13 14 14 14 14 16 17 17 16 14 13 12 11 12 11 10 9
12 12 12 13 13 13 12 12 12 11 11 10 9 8 7 7 8 10 9 10 10 9 9 9 9 10 10 9 10 11 12 11 11 11 11 11 11 10 10 9 9 6 5
12 13 13 13 14 14 13 12 12 13 12 12 11 10 9 7 7 8 7 7 8 8 8 8 9 9 8 8 9 10 10 10 10 10 10 10 9 8 7 7 5 6 6
11 12 13 14 15 15 15 15 14 14 14 13 13 12 11 9 7 7 7 8 9 9 9 8 8 8 8 8 10 11 11 10 11 11 10 10 8 7 5 4 5 6 7
8 11 13 14 15 18 18 17 16 15 14 14 13 13 13 13 10 8 8 9 9 9 8 9 9 7 7 9 11 11 12 12 12 11 10 8 6 4 5 6 7 8 9
7 10 11 13 15 19 21 21 19 16 15 14 13 14 14 13 13 11 11 10 10 10 10 10 8 8 7 10 13 13 12 12 11 10 8 6 4 5 5 6 7 7 8
7 10 12 14 15 16 19 21 20 17 13 14 15 15 14 13 12 13 12 12 12 12 12 11 10 9 10 13 14 14 12 10 9 7 6 5 4 4 5 6 6 6 7
8 8 8 9 9 11 15 18 17 13 15 15 16 16 15 13 14 14 14 14 14 13 13 13 12 13 13 14 13 12 11 9 7 6 5 5 4 4 5 5 6 5 5
9 8 7 5 5 8 11 13 13 15 15 16 16 16 15 14 15 14 14 16 16 15 15 15 15 15 16 15 13 11 9 8 7 6 5 4 4 4 5 5 5 5 5
6 8 8 8 8 9 11 12 13 13 15 16 17 17 18 17 17 16 16 17 18 18 17 17 17 17 16 15 13 11 10 8 7 5 5 4 4 4 5 6 6 6 6
6 7 6 7 9 10 11 11 12 15 17 17 17 18 18 18 19 17 18 18 18 17 15 16 17 17 16 14 12 11 9 8 7 6 5 5 5 5 5 6 6 7 7
5 6 5 6 7 9 10 11 12 14 16 17 18 18 18 18 18 17 18 18 17 17 16 17 17 16 15 16 14 13 11 10 9 7 7 7 7 7 6 6 7 7 8
Wind_Direction
229 257 259 253 217 211 215 214 225 226 227 222 218 216 213 214 211 217 218 219 220 222 225 224 224 227 231 232 233 235 242 248 257 268 272 277 277 277 283 283 286 288 289
233 246 260 264 212 208 219 224 232 238 233 235 231 227 222 222 221 222 221 219 220 226 230 231 230 232 237 237 239 243 249 255 258 264 280 290 286 288 292 292 303 305 309
221 226 243 255 246 224 220 220 220 228 244 246 243 243 242 238 233 229 226 224 225 232 236 236 235 236 241 246 248 249 254 261 264 264 257 267 266 292 296 293 290 295 295
219 222 223 242 233 221 238 243 239 233 224 229 227 234 250 252 256 251 243 244 237 231 235 239 239 239 243 248 251 250 251 253 258 261 262 267 268 270 280 277 283 286 284
217 220 222 218 212 218 219 216 223 230 233 231 234 235 237 242 243 248 251 249 248 258 254 258 254 254 253 258 265 265 262 265 261 262 263 267 269 268 265 270 269 284 283
236 239 226 226 223 225 226 231 232 232 229 226 231 234 238 236 236 244 244 251 257 258 260 260 262 264 264 267 270 271 269 268 266 264 260 264 266 271 270 268 274 280 281
236 238 240 238 235 235 231 231 237 235 233 232 229 232 236 242 245 247 250 256 261 262 261 261 262 264 266 264 263 264 264 264 263 263 261 262 266 271 271 273 273 282 278
233 229 226 228 231 228 232 229 232 236 234 232 235 236 236 239 243 248 251 254 257 260 260 260 261 262 261 261 262 263 263 259 256 256 254 262 266 263 269 272 273 283 269
212 217 220 218 217 215 218 221 225 230 232 232 231 231 234 236 240 246 250 253 255 257 261 263 262 263 262 261 261 260 259 254 254 256 259 261 265 269 272 273 277 275 273
210 207 207 206 208 210 207 208 210 215 220 223 225 224 226 231 238 244 252 259 263 266 266 266 266 264 262 260 258 255 254 251 249 253 253 258 263 278 279 278 278 273 272
206 201 201 201 203 204 204 202 201 202 208 212 217 222 228 234 241 248 255 260 264 266 267 265 263 261 258 258 253 246 246 250 246 246 249 253 266 280 274 272 271 273 265
163 168 179 184 187 193 196 200 204 211 215 219 225 231 238 244 249 251 253 256 257 258 261 262 263 264 261 255 246 237 238 246 230 252 252 258 264 271 269 271 264 262 266
140 147 159 171 180 187 194 202 210 219 229 235 239 241 243 245 249 254 255 256 258 257 258 260 260 261 256 251 240 234 236 242 250 250 254 254 261 265 260 256 259 259 265
149 153 162 170 178 186 196 206 213 218 222 224 228 234 242 249 254 261 264 263 261 261 257 257 258 256 253 246 242 239 240 240 244 247 246 251 256 245 253 249 250 248 249
172 175 179 188 195 197 198 198 203 209 214 220 223 232 243 264 279 284 281 274 269 265 260 262 265 261 251 243 237 234 236 237 240 241 241 237 234 234 228 232 238 241 237
192 195 198 202 204 204 204 205 209 215 222 230 233 243 253 271 292 297 289 284 279 264 255 252 247 249 246 238 226 220 222 220 219 225 223 213 216 220 223 224 226 228 236
208 210 215 217 214 215 216 217 221 226 230 232 235 237 243 260 286 293 285 268 265 256 250 241 241 232 226 220 210 198 200 202 206 216 206 202 193 196 200 212 217 236 248
223 231 235 235 229 225 225 224 228 232 235 240 245 241 242 246 256 267 262 261 255 245 236 229 220 219 216 217 208 204 204 200 200 185 177 176 175 182 197 225 250 264 273
232 246 248 245 241 238 234 234 235 236 239 244 248 250 252 254 242 239 246 243 239 231 222 214 209 210 223 212 195 191 183 178 172 168 170 169 180 204 233 256 268 278 282
252 255 256 255 247 239 234 233 234 236 240 245 244 245 245 245 245 220 224 231 226 219 209 207 203 198 222 194 178 166 167 169 169 172 176 192 208 239 269 273 280 284 288
267 270 268 262 257 246 232 229 230 238 245 248 248 246 243 239 235 226 221 227 222 217 215 211 207 200 191 186 176 168 170 174 178 185 196 215 237 272 282 282 290 292 289
316 288 273 264 243 226 215 220 230 239 244 245 248 242 235 235 237 232 230 225 223 219 215 212 203 195 190 185 183 181 182 186 193 200 216 237 268 279 288 299 299 298 292
337 303 273 246 220 203 210 226 235 243 247 248 245 237 230 235 242 229 231 228 222 219 216 213 210 202 194 193 191 189 193 199 204 212 229 254 273 289 299 301 310 316 307
307 315 273 252 239 233 240 246 245 247 250 250 246 236 232 233 241 243 231 227 224 218 216 213 209 203 201 200 198 199 202 208 217 224 236 252 283 296 297 305 314 309 302
280 292 289 256 243 241 243 245 253 256 254 249 243 238 238 238 239 244 237 230 226 225 231 222 212 209 208 207 208 210 216 222 226 234 248 263 279 287 295 302 306 305 301
287 286 287 264 249 249 248 249 256 260 257 249 245 241 242 241 237 237 233 227 220 220 217 207 213 214 209 214 217 220 227 235 240 239 254 261 269 281 292 299 303 302 299
Height
1504 1509 1512 1511 1514 1518 1522 1524 1529 1531 1534 1535 1539 1542 1543 1546 1549 1553 1556 1559 1562 1564 1566 1568 1570 1572 1573 1575 1577 1578 1579 1580 1582 1582 1582 1582 1583 1582 1582 1582 1582 1582 1583
1504 1507 1508 1510 1512 1515 1517 1521 1525 1528 1532 1537 1540 1542 1543 1546 1548 1550 1553 1556 1558 1561 1563 1565 1567 1569 1570 1572 1573 1575 1576 1577 1578 1579 1579 1578 1579 1578 1578 1579 1579 1580 1580
1500 1503 1505 1507 1509 1511 1515 1519 1523 1529 1530 1534 1538 1540 1542 1543 1545 1546 1548 1551 1554 1557 1559 1561 1563 1565 1567 1568 1570 1571 1572 1574 1574 1575 1577 1576 1575 1574 1575 1575 1576 1576 1576
1494 1501 1506 1507 1507 1511 1512 1515 1521 1525 1527 1529 1532 1535 1539 1540 1541 1543 1545 1549 1551 1553 1555 1556 1558 1561 1562 1563 1565 1566 1567 1568 1568 1569 1570 1571 1572 1572 1571 1571 1571 1571 1571
1490 1494 1499 1502 1504 1508 1510 1513 1515 1519 1523 1526 1528 1531 1534 1536 1539 1541 1541 1544 1547 1550 1550 1551 1553 1555 1556 1558 1560 1561 1561 1562 1563 1563 1564 1565 1566 1566 1566 1563 1565 1566 1565
1483 1487 1492 1495 1498 1500 1504 1508 1510 1512 1517 1520 1522 1525 1529 1534 1535 1537 1534 1539 1540 1542 1544 1546 1549 1549 1550 1552 1553 1555 1554 1555 1556 1556 1557 1558 1559 1559 1560 1558 1559 1559 1559
1478 1481 1485 1488 1492 1496 1499 1502 1504 1507 1510 1513 1517 1520 1524 1526 1527 1529 1530 1532 1535 1537 1539 1540 1542 1543 1544 1545 1546 1547 1549 1549 1549 1550 1551 1552 1553 1553 1553 1553 1553 1552 1552
1470 1475 1479 1484 1487 1491 1496 1497 1499 1502 1505 1507 1510 1514 1517 1521 1521 1524 1526 1529 1531 1533 1534 1535 1536 1537 1538 1539 1540 1540 1542 1542 1543 1544 1545 1546 1546 1547 1548 1548 1547 1547 1546
1465 1468 1474 1479 1482 1487 1491 1494 1496 1498 1501 1504 1506 1509 1512 1516 1518 1520 1523 1525 1526 1527 1528 1529 1529 1530 1532 1532 1533 1533 1534 1536 1537 1538 1540 1540 1541 1542 1542 1542 1542 1541 1539
1460 1464 1468 1474 1478 1483 1487 1490 1493 1495 1497 1500 1503 1505 1508 1510 1514 1515 1517 1519 1519 1520 1520 1522 1522 1523 1524 1524 1525 1525 1527 1529 1531 1533 1534 1534 1536 1536 1536 1537 1538 1536 1536
1459 1461 1465 1470 1475 1479 1484 1486 1490 1492 1496 1498 1500 1502 1504 1507 1509 1510 1511 1512 1512 1512 1514 1514 1515 1516 1516 1516 1518 1519 1521 1523 1524 1527 1528 1529 1530 1530 1530 1531 1532 1531 1531
1460 1461 1464 1468 1473 1478 1482 1486 1488 1491 1494 1496 1498 1499 1501 1502 1503 1504 1505 1506 1507 1507 1508 1508 1508 1510 1510 1510 1512 1515 1517 1519 1519 1522 1523 1524 1524 1524 1524 1526 1526 1526 1527
1461 1464 1468 1471 1475 1478 1482 1485 1488 1490 1492 1494 1495 1497 1498 1499 1500 1500 1501 1502 1503 1502 1503 1503 1503 1505 1506 1506 1508 1510 1512 1512 1514 1516 1516 1518 1518 1519 1519 1522 1523 1522 1522
1463 1466 1469 1472 1476 1478 1481 1484 1486 1488 1490 1493 1494 1495 1496 1497 1498 1498 1499 1498 1499 1498 1497 1498 1498 1500 1503 1501 1503 1504 1506 1506 1508 1510 1511 1514 1513 1514 1516 1518 1520 1518 1518
1464 1467 1469 1472 1475 1477 1480 1482 1485 1487 1490 1492 1492 1493 1493 1494 1494 1495 1494 1495 1495 1493 1494 1492 1494 1496 1497 1499 1498 1500 1502 1502 1504 1506 1507 1508 1510 1512 1512 1513 1514 1515 1514
1465 1468 1470 1473 1475 1477 1479 1481 1484 1486 1488 1489 1489 1489 1490 1491 1492 1491 1490 1490 1492 1492 1490 1491 1491 1493 1495 1495 1495 1496 1498 1499 1501 1503 1504 1505 1506 1508 1510 1511 1512 1512 1512
1464 1466 1469 1471 1473 1476 1478 1479 1481 1482 1484 1485 1486 1486 1488 1489 1489 1488 1488 1489 1489 1490 1489 1488 1489 1490 1491 1493 1494 1494 1495 1497 1500 1502 1502 1503 1504 1506 1508 1509 1509 1510 1511
1463 1465 1468 1470 1472 1474 1475 1477 1478 1479 1480 1482 1483 1484 1485 1485 1485 1486 1486 1487 1487 1487 1486 1486 1488 1489 1488 1490 1493 1493 1494 1495 1499 1499 1500 1502 1503 1505 1506 1507 1508 1508 1508
1461 1463 1465 1466 1468 1470 1471 1473 1474 1476 1477 1479 1480 1481 1482 1482 1482 1482 1484 1485 1484 1484 1484 1486 1486 1487 1488 1488 1491 1492 1493 1495 1497 1498 1500 1501 1503 1504 1505 1506 1506 1505 1504
1459 1461 1461 1462 1462 1464 1466 1468 1471 1472 1474 1476 1477 1477 1479 1479 1480 1480 1481 1483 1483 1483 1484 1484 1484 1486 1487 1488 1491 1492 1493 1494 1495 1498 1500 1501 1502 1503 1503 1504 1503 1502 1501
1457 1457 1457 1457 1457 1459 1461 1464 1467 1469 1471 1472 1473 1474 1475 1476 1477 1478 1479 1480 1481 1481 1482 1483 1483 1485 1487 1489 1490 1490 1492 1494 1495 1497 1499 1500 1500 1500 1501 1501 1500 1499 1498
1455 1454 1454 1453 1453 1455 1457 1461 1464 1467 1467 1468 1469 1470 1472 1473 1474 1475 1476 1477 1478 1479 1480 1481 1483 1484 1486 1488 1489 1490 1492 1493 1495 1497 1498 1498 1498 1498 1498 1498 1497 1496 1495
1454 1453 1453 1452 1453 1455 1457 1460 1462 1463 1463 1464 1466 1467 1468 1469 1471 1471 1472 1473 1475 1476 1478 1479 1481 1483 1485 1487 1488 1490 1491 1493 1494 1495 1495 1496 1496 1496 1495 1495 1494 1493 1493
1452 1451 1451 1451 1452 1454 1456 1457 1458 1459 1460 1460 1462 1463 1464 1465 1467 1468 1469 1470 1472 1474 1475 1477 1479 1482 1484 1485 1487 1489 1490 1492 1492 1493 1493 1493 1493 1493 1493 1492 1491 1491 1490
1450 1450 1449 1449 1450 1451 1452 1453 1454 1455 1456 1457 1458 1459 1460 1461 1463 1464 1466 1467 1469 1472 1474 1476 1478 1480 1482 1484 1486 1487 1488 1489 1490 1490 1490 1490 1491 1491 1490 1489 1489 1488 1487
1449 1449 1449 1448 1448 1448 1449 1450 1451 1451 1452 1452 1453 1455 1456 1457 1459 1460 1462 1464 1466 1469 1471 1473 1476 1478 1480 1481 1483 1485 1486 1486 1487 1487 1488 1488 1488 1488 1487 1487 1486 1485 1484